RH
92 95 97 96 97 97 97 96 94 94 95 95 95 96 94 99 99 99 99 99 99 98
94 94 94 93 94 94 90 76 89 93 93 94 94 96 97 96 96 97 99 99 98 98
92 91 90 89 90 87 84 82 83 83 86 89 91 94 95 97 95 95 95 97 96 95
93 92 92 93 94 92 87 86 86 86 87 89 92 94 95 95 96 96 96 96 96 96
93 94 96 96 95 93 93 90 91 90 90 91 94 95 95 96 96 96 96 96 95 94
96 96 98 98 97 96 95 96 95 94 95 94 92 94 93 93 94 95 95 92 90 90
96 96 86 90 91 90 95 96 96 94 92 90 93 94 90 89 92 94 94 94 96 94
94 81 82 85 87 87 87 89 88 84 80 80 83 84 89 91 93 96 97 96 95 95
86 84 86 88 89 89 90 91 91 91 90 91 82 84 87 93 94 91 92 96 96 86
85 88 91 91 91 95 95 93 95 95 92 93 91 87 90 90 94 94 94 94 95 88
90 93 93 94 97 95 94 98 99 94 88 90 79 80 81 83 95 96 96 96 94 92
90 94 96 97 98 96 95 97 94 91 94 94 90 68 72 86 96 94 91 71 78 79
92 95 98 98 98 98 94 93 96 97 97 81 93 61 61 69 68 72 61 66 66 66
96 96 95 98 97 96 97 98 100 98 93 87 83 80 56 65 64 64 65 68 76 76
Wind_Speed
4 3 3 3 2 3 2 2 4 5 5 6 6 6 5 2 2 3 3 4 3 3
5 5 4 5 4 3 4 3 5 5 5 5 6 6 5 4 4 5 4 4 4 2
4 5 4 4 5 4 4 4 5 5 5 5 5 5 5 4 5 5 4 3 5 4
4 4 4 4 4 4 4 5 5 5 5 5 5 5 5 5 6 6 5 5 5 5
4 4 5 5 4 4 4 4 4 4 5 5 5 5 6 6 6 6 6 5 6 5
4 4 5 4 4 5 4 4 5 5 5 5 5 5 5 6 6 6 6 6 7 5
4 3 3 4 4 4 4 5 5 5 5 5 6 6 7 7 7 7 8 8 7 5
4 3 3 4 4 3 4 4 3 5 5 6 7 6 6 7 7 7 7 7 6 8
4 4 4 4 4 4 4 4 4 5 5 7 6 13 13 8 6 6 6 6 5 6
4 5 5 5 5 5 4 4 5 5 5 6 7 13 12 12 6 6 5 5 4 4
5 5 5 5 5 4 4 4 4 5 6 6 7 12 12 12 5 4 3 3 2 3
5 6 6 6 5 3 4 4 4 4 4 3 3 10 10 7 4 4 3 3 3 4
5 6 6 6 5 3 3 4 3 3 3 6 3 6 7 5 3 3 2 3 4 7
5 6 6 5 3 4 4 4 2 1 2 3 3 3 4 5 3 2 2 3 2 3
Wind_Direction
51 67 61 49 66 54 36 9 357 356 3 357 354 353 339 322 275 217 200 200 197 181
58 65 65 48 48 47 20 7 14 20 22 13 5 359 2 26 23 56 52 55 69 90
76 68 65 59 46 35 17 15 16 20 26 26 21 14 28 26 22 68 47 48 75 62
71 64 61 60 42 32 30 17 24 24 30 30 29 25 50 52 45 65 60 52 77 78
79 66 60 50 38 37 43 31 37 43 46 34 32 30 52 59 50 65 65 63 72 64
87 85 77 67 53 48 57 52 45 51 50 43 33 34 47 68 66 64 63 56 60 46
113 122 119 101 75 66 69 66 61 64 67 67 59 48 57 67 68 69 63 59 60 60
154 125 111 100 97 87 75 81 60 72 74 67 65 72 69 67 66 71 70 57 51 52
154 127 116 109 103 94 80 70 65 61 69 75 73 83 87 79 76 68 70 68 53 48
147 133 120 118 108 100 84 81 67 62 67 83 85 84 86 87 70 64 51 54 44 52
142 137 129 120 115 103 87 84 67 60 53 59 84 87 92 91 73 71 58 71 73 67
154 146 138 132 122 117 110 88 80 68 69 87 41 98 105 104 82 70 53 53 27 67
154 151 142 140 137 108 89 93 86 77 47 92 47 93 98 104 103 81 60 40 31 22
153 149 141 120 109 109 104 92 94 126 26 56 38 346 97 115 115 116 87 61 29 2